Grant County, OR

7:56 AM PDT on September 16, 2019 (GMT -0700)
Grant County Regional

Weather History for KGCD - May, 2019

Change the Weather History Date:

Wednesday, May 29, 2019

  Actual Average (WUND) Record (WUND)
Temperature  
Mean Temperature 58 °F -  
Max Temperature 68 °F - - (-1)
Min Temperature 47 °F - - (-1)
Degree Days  
Heating Degree Days 8    
Growing Degree Days 8 (Base 50)    
Moisture  
Dew Point 47 °F    
Average Humidity 72    
Maximum Humidity 93    
Minimum Humidity 50    
Precipitation  
Precipitation 0.00 in - - ()
Sea Level Pressure  
Sea Level Pressure 29.99 in    
Wind  
Wind Speed 5 mph (East)    
Max Wind Speed 9 mph    
Max Gust Speed -    
Visibility 10 miles    
Events Thunderstorm    
Averages and records for this station are not official NWS values.
T = Trace of Precipitation, MM = Missing Value Source: NWS Daily Summary

Daily Weather History Graph

Daily Weather History Graph

Search for Another Location

Airport or City:

Astronomy

May. 29, 2019 Rise Set
Actual Time 5:16 AM PDT 8:30 PM PDT
Civil Twilight 4:41 AM PDT 9:06 PM PDT
Nautical Twilight 3:55 AM PDT 9:52 PM PDT
Astronomical Twilight 2:59 AM PDT 10:48 PM PDT
Moon 3:12 AM PDT (5/29) 3:29 PM PDT (5/29)
Length of Visible Light 16h 25m
Length of Day
15h 14m
Waning Crescent, 22% of the Moon is Illuminated
May 29
Waning Crescent
Jun 3
New
Jun 9
First Quarter
Jun 17
Full
Jun 25
Last Quarter

Hourly Weather History & Observations

Time (PDT) Temp. Dew Point Humidity Pressure Visibility Wind Dir Wind Speed Gust Speed Precip Events Conditions
12:15 AM 52.0 °F 46.8 °F 82% 30.01 in 10.0 mi East 6.9 mph - N/A   Clear
12:35 AM 51.8 °F 46.8 °F 83% 30.01 in 10.0 mi East 5.8 mph - N/A   Scattered Clouds
12:55 AM 52.2 °F 46.8 °F 82% 30.01 in 10.0 mi East 4.6 mph - N/A   Mostly Cloudy
1:15 AM 51.8 °F 46.4 °F 82% 30.01 in 10.0 mi East 9.2 mph - N/A   Mostly Cloudy
1:35 AM 51.6 °F 46.2 °F 82% 30.00 in 10.0 mi East 6.9 mph - N/A   Mostly Cloudy
1:55 AM 50.5 °F 45.5 °F 83% 30.00 in 10.0 mi East 6.9 mph - N/A   Mostly Cloudy
2:15 AM 50.0 °F 45.5 °F 85% 30.00 in 10.0 mi East 5.8 mph - N/A   Scattered Clouds
2:35 AM 49.5 °F 45.1 °F 85% 30.00 in 10.0 mi East 8.1 mph - N/A   Clear
2:55 AM 49.5 °F 45.0 °F 84% 30.00 in 10.0 mi East 8.1 mph - N/A   Scattered Clouds
3:15 AM 49.5 °F 45.0 °F 84% 30.00 in 10.0 mi East 6.9 mph - N/A   Scattered Clouds
3:35 AM 50.0 °F 45.5 °F 85% 30.00 in 10.0 mi East 6.9 mph - N/A   Clear
3:55 AM 50.0 °F 45.1 °F 83% 30.00 in 10.0 mi East 5.8 mph - N/A   Mostly Cloudy
4:15 AM 50.0 °F 45.5 °F 85% 30.01 in 10.0 mi East 4.6 mph - N/A   Mostly Cloudy
4:35 AM 49.3 °F 45.7 °F 87% 30.00 in 10.0 mi ESE 4.6 mph - N/A   Scattered Clouds
4:55 AM 50.2 °F 45.9 °F 85% 30.00 in 10.0 mi Calm Calm - N/A   Mostly Cloudy
5:15 AM 49.8 °F 46.0 °F 87% 30.00 in 10.0 mi Calm Calm - N/A   Mostly Cloudy
5:35 AM 49.6 °F 46.4 °F 89% 30.01 in 10.0 mi Calm Calm - N/A   Scattered Clouds
5:55 AM 47.7 °F 45.5 °F 92% 30.01 in 10.0 mi ESE 5.8 mph - N/A   Scattered Clouds
6:15 AM 47.8 °F 45.9 °F 93% 30.02 in 10.0 mi East 6.9 mph - N/A   Mostly Cloudy
6:35 AM 47.7 °F 45.5 °F 92% 30.02 in 10.0 mi East 8.1 mph - N/A   Scattered Clouds
6:55 AM 48.4 °F 45.5 °F 90% 30.02 in 10.0 mi East 5.8 mph - N/A   Scattered Clouds
7:15 AM 49.1 °F 45.7 °F 88% 30.02 in 10.0 mi East 5.8 mph - N/A   Scattered Clouds
7:35 AM 50.0 °F 45.7 °F 85% 30.02 in 10.0 mi East 6.9 mph - N/A   Mostly Cloudy
7:55 AM 50.7 °F 46.0 °F 84% 30.02 in 10.0 mi East 6.9 mph - N/A   Scattered Clouds
8:15 AM 52.7 °F 46.9 °F 81% 30.02 in 10.0 mi ESE 3.5 mph - N/A   Scattered Clouds
8:35 AM 55.4 °F 48.4 °F 77% 30.02 in 10.0 mi Calm Calm - N/A   Mostly Cloudy
8:55 AM 57.4 °F 48.9 °F 73% 30.02 in 10.0 mi East 3.5 mph - N/A   Scattered Clouds
9:15 AM 59.0 °F 49.3 °F 70% 30.02 in 10.0 mi East 4.6 mph - N/A   Clear
9:35 AM 57.2 °F 48.6 °F 73% 30.02 in 10.0 mi East 4.6 mph - N/A   Scattered Clouds
9:55 AM 58.3 °F 49.3 °F 72% 30.02 in 10.0 mi East 8.1 mph - N/A   Mostly Cloudy
10:15 AM 59.0 °F 49.6 °F 71% 30.02 in 10.0 mi East 5.8 mph - N/A   Overcast
10:35 AM 61.0 °F 49.8 °F 67% 30.01 in 10.0 mi ESE 4.6 mph - N/A   Overcast
10:55 AM 62.4 °F 50.2 °F 64% 30.01 in 10.0 mi East 8.1 mph - N/A   Scattered Clouds
11:15 AM 60.8 °F 49.3 °F 66% 30.01 in 10.0 mi East 8.1 mph - N/A Thunderstorm Thunderstorm
11:35 AM 61.2 °F 49.1 °F 65% 30.01 in 10.0 mi ESE 6.9 mph - N/A Thunderstorm Thunderstorm
11:55 AM 61.0 °F 48.4 °F 63% 30.01 in 10.0 mi ESE 8.1 mph - N/A Thunderstorm Thunderstorm
2:15 PM 65.3 °F 48.7 °F 55% 29.98 in 10.0 mi Calm Calm - N/A   Scattered Clouds
2:35 PM 66.6 °F 49.3 °F 54% 29.98 in 10.0 mi WNW 3.5 mph - N/A   Mostly Cloudy
2:55 PM 67.1 °F 48.6 °F 51% 29.97 in 10.0 mi WNW 6.9 mph - N/A Thunderstorm Scattered Clouds
3:15 PM 67.1 °F 48.0 °F 50% 29.97 in 10.0 mi West 6.9 mph - N/A   Clear
3:35 PM 65.7 °F 46.9 °F 51% 29.97 in 10.0 mi WSW 4.6 mph - N/A   Clear
3:55 PM 65.7 °F 46.6 °F 50% 29.96 in 10.0 mi Calm Calm - N/A   Scattered Clouds
4:35 PM 66.4 °F 48.7 °F 53% 29.95 in 10.0 mi West 4.6 mph - N/A Thunderstorm Clear
4:55 PM 68.0 °F 49.3 °F 51% 29.95 in 10.0 mi NNW 6.9 mph - N/A   Clear
5:15 PM 67.6 °F 48.7 °F 51% 29.95 in 10.0 mi SW 3.5 mph - N/A   Clear
5:35 PM 66.6 °F 47.5 °F 50% 29.95 in 10.0 mi Calm Calm - N/A   Clear
5:55 PM 66.0 °F 46.9 °F 50% 29.95 in 10.0 mi WNW 8.1 mph - N/A   Clear
6:15 PM 65.3 °F 46.2 °F 50% 29.95 in 10.0 mi WNW 5.8 mph - N/A   Clear
6:35 PM 64.4 °F 48.2 °F 56% 29.95 in 10.0 mi North 9.2 mph - N/A Thunderstorm Clear
6:55 PM 62.8 °F 48.4 °F 59% 29.95 in 10.0 mi NNW 4.6 mph - N/A   Clear
7:15 PM 62.1 °F 48.0 °F 60% 29.95 in 10.0 mi North 3.5 mph - N/A   Clear
7:35 PM 61.7 °F 48.4 °F 62% 29.95 in 10.0 mi Calm Calm - N/A   Clear
7:55 PM 61.5 °F 47.7 °F 60% 29.94 in 10.0 mi Calm Calm - N/A   Clear
8:15 PM 59.9 °F 48.7 °F 67% 29.95 in 10.0 mi North 5.8 mph - N/A   Clear
8:35 PM 59.2 °F 48.2 °F 67% 29.95 in 10.0 mi NNW 3.5 mph - N/A   Clear
8:55 PM 58.1 °F 48.4 °F 70% 29.96 in 10.0 mi Calm Calm - N/A   Clear
9:15 PM 59.0 °F 48.2 °F 67% 29.97 in 10.0 mi Calm Calm - N/A   Clear
9:35 PM 58.1 °F 48.6 °F 71% 29.98 in 10.0 mi Calm Calm - N/A   Scattered Clouds
9:55 PM 59.4 °F 48.2 °F 67% 29.98 in 10.0 mi Calm Calm - N/A   Overcast
10:15 PM 55.9 °F 48.9 °F 77% 29.98 in 10.0 mi ESE 5.8 mph - N/A   Mostly Cloudy
10:35 PM 56.8 °F 49.1 °F 75% 29.99 in 10.0 mi ESE 5.8 mph - N/A   Mostly Cloudy
10:55 PM 56.8 °F 49.6 °F 77% 29.98 in 10.0 mi ESE 5.8 mph - N/A   Overcast
11:15 PM 56.5 °F 49.3 °F 77% 29.98 in 10.0 mi East 4.6 mph - N/A   Overcast
11:35 PM 55.9 °F 48.7 °F 77% 29.97 in 10.0 mi East 8.1 mph - N/A   Overcast
11:55 PM 55.8 °F 48.6 °F 77% 29.97 in 10.0 mi ESE 6.9 mph - N/A   Overcast